Terminal Aerodrome Forecast
Issued by NWS

Home | Current Version | Previous Version | Graphics & Text | Print | Product List | Glossary On
Versions: 1 2 3 4 5 6 7 8 9 10 11 12 13 14 15 16 17 18
000
FTUS43 KBIS 130500
TAFJMS
TAF
KJMS 130520Z 1306/1406 23008KT P6SM SCT150
     FM131700 20015KT P6SM BKN060
     FM132200 27011KT P6SM BKN050
     FM140100 28007KT P6SM BKN050=

USA.gov is the U.S. government's official web portal to all federal, state and local government web resources and services.